Location: Haliburton Scout Reserve
(45.0900°N, 78.3200°W)
Time: 08:57:02
(UTC-04:00)

S-56A Canister/Altair - Pass Details

Date: 04 February 2023
Orbit: 639 x 2493 km, 38.9° (Epoch: 27 March)

Event Time Altitude Azimuth Distance (km) Brightness Sun altitude
Rises 10:04:26 0° 213° (SSW) 2,937 10.8 20.7°
Reaches altitude 10° 10:07:20 10° 193° (SSW) 2,017 10.4 21.0°
Maximum altitude 10:10:19 18° 150° (SSE) 1,629 12.1 21.3°
Drops below altitude 10° 10:13:33 10° 109° (ESE) 2,201 10.9 21.6°
Sets 10:16:55 0° 90° (E) 3,331 11.3 22.0°
